User: anonymous   Login
Location: Baix
(44.7118°N, 4.7648°E)
Time: 07:08:47
(UTC+00:00)
Language:

Cosmos 2322 Rocket - Orbit

View from above orbital plane
View from above orbital plane
View from above satellite
View from above satellite

Ground track
Ground track

The orbit data is extracted from the following two-line orbital elements,

1 23705U 95058B   22333.80893202  .00000273  00000-0  16480-3 0  9993
2 23705  71.0204 170.3247 0011424 150.8570 209.3192 14.15189365398644
Epoch (UTC): 29 November 2022 19:24:51
Eccentricity: 0.0011424
inclination: 71.0204°
perigee height: 833 km
apogee height: 850 km
right ascension of ascending node: 170.3247°
argument of perigee: 150.8570°
revolutions per day: 14.15189365
mean anomaly at epoch: 209.3192°
orbit number at epoch: 39864

The dashed part of the orbit path shows where the satellite is in the earth's shadow,  

DLR